Regional Weather Roundup
Issued by NWS

Home | Current Version | Previous Version | Graphics & Text | Print | Product List | Glossary Off
Versions: 1 2 3 4 5 6 7 8 9 10 11 12 13 14 15 16 17 18 19 20 21 22 23 24 25 26 27 28 29 30 31 32 33 34 35 36 37 38 39 40 41 42 43 44 45 46 47 48 49 50

000
ASUS43 KTOP 281059
RWRKS

WEATHER ROUNDUP FOR KANSAS
NATIONAL WEATHER SERVICE GOODLAND KS
600 AM CDT TUE JUL 28 2015

NOTE:  "FAIR" INDICATES FEW OR NO CLOUDS BELOW 12,000 FEET WITH NO
SIGNIFICANT WEATHER AND/OR OBSTRUCTIONS TO VISIBILITY.

KSZ001>006-013>018-027>032-041>047-281200-
NORTHWEST KANSAS

CITY           SKY/WX    TMP DP  RH WIND       PRES   REMARKS
GOODLAND       CLEAR     72  49  44 NW23      29.90R
HAYS           CLEAR     75  63  64 S15       29.80S
HILL CITY      CLEAR     79  67  66 S16G22    29.77R
RUSSELL        CLEAR     78  65  63 S16G26    29.78F
$$

KSZ061>065-074>080-084>089-281200-
SOUTHWEST KANSAS

CITY           SKY/WX    TMP DP  RH WIND       PRES   REMARKS
DODGE CITY     CLEAR     75  62  64 S13       29.86S
ELKHART          N/A     72  60  66 S9          N/A
GARDEN CITY    PTCLDY    76  64  66 S17       29.85S
GREAT BEND     CLEAR     77  63  61 S16       29.82S
LIBERAL        PTCLDY    75  61  60 S15       29.88S
$$

KSZ066>073-081>083-090>101-281200-
SOUTHEAST KANSAS

CITY           SKY/WX    TMP DP  RH WIND       PRES   REMARKS
CHANUTE        CLEAR     78  75  90 S7        29.90R
COFFEYVILLE    CLEAR     78  75  90 S6        29.90R
HUTCHINSON     CLEAR     78  67  68 S10       29.86S
NEWTON         CLEAR     81  64  57 S17G23    29.89F
PARSONS        CLEAR     79  76  90 S5        29.91S
WICHITA INTL   CLEAR     78  70  76 S12       29.87S
WICHITA JABRA  CLEAR     79  69  71 S14       29.87S
WINFIELD       CLEAR     78  69  73 S10       29.90R
$$

KSZ007>012-019>026-033>040-048>060-102>105-281200-
NORTHEAST KANSAS

CITY           SKY/WX    TMP DP  RH WIND       PRES   REMARKS
CONCORDIA      PTCLDY    78  66  66 S16       29.78F
EMPORIA        CLEAR     75  72  90 S12       29.87S
LAWRENCE       CLEAR     76  73  91 SE5       29.87R
MANHATTAN      CLEAR     79  72  79 SW9       29.81F
OLATHE IND     CLEAR     77  74  90 S7        29.90R
OLATHE EXE     CLEAR     77  74  90 S6        29.89R
SALINA         CLEAR     80  68  66 S14       29.81S
TOPEKA BILLARD CLEAR     79  74  84 S5        29.85S
TOPEKA FORBES  CLEAR     79  73  82 S9        29.86S
$$


USA.gov is the U.S. government's official web portal to all federal, state and local government web resources and services.